星链-6068 (STARLINK-6068 )

导读

STARLINK-6068是美国太空探索技术公司Starlink星链互联网卫星项目中的一员,于2023年5月31日发射升空。星链计划旨在构建全球卫星互联网星座,提供全天候低延迟宽带覆盖,该卫星入轨后,进一步扩充了星链星座的部署规模,助力该项目完成全球通信网络布局。

基本信息
目录编号:
56798
目录名称:
STARLINK-6068
国际标识:
2023-078AH
轨道中心:
EARTH
卫星名称:
星链-6068
卫星全名:
星链-6068 (STARLINK-6068 )
卫星状态:
已陨落 最后检测时间 2025-05-14
发射日期:
2023-05-31 UTC
国别 :
美国 (US)
星等 :
--
轨道信息
数据来源 国际轨道数据
星历时间: 2025-05-14T10:59:22+0800
轨道信息已过期396天
半长轴: 6528.84km
偏心率: 0.0014618
轨道倾角: 69.975°
近地点辐角 275.407°
升交点赤经 343.626°
平近点角 224.167°
近地点: 141.161km
远地点: 160.249km
周期: 87.501分钟
每日圈数: 16.45693
详细信息
固有亮度:
5
最大亮度:
2.5
卫星平台:
Starlink v1.5
覆盖范围:
全球
运营商:
太空探索技术公司
运营商所在国:
美国
制造商(研发单位):
太空探索技术公司
制造商所在国:
美国
使用方式:
暂无
卫星简介
星链(Starlink)计划是由太空探索技术公司(SpaceX)提出的一个巨型低轨卫星互联网星座项目,计划在2019年至2024年间在太空搭建由约1.2万颗卫星组成的“星链”网络,其中1584颗将部署在地球上空550千米处的近地轨道,并从2020年开始工作。该卫星仍在工作。